Location: Treviso
(45.6669°N, 12.2430°E)
Time: 19:08:52
(UTC+02:00)

Gurwin Techsat 1B - Visible Passes

Search period start: 19 April 2019 00:00
Search period end: 29 April 2019 00:00
Orbit: 812 x 814 km, 98.7° (Epoch: 18 April)

Date Brightness Start Highest point End Pass type
(mag) Time Alt. Az. Time Alt. Az. Time Alt. Az.
19 Apr 10.8 01:47:19 10° NE 01:50:20 16° E 01:50:20 16° E visible
19 Apr 8.5 03:25:46 10° N 03:31:05 73° WNW 03:31:33 68° WSW visible
19 Apr 10.6 05:08:04 10° NNW 05:10:06 12° NW 05:12:07 10° WNW visible
20 Apr 8.6 03:02:54 10° NNE 03:08:15 74° ESE 03:08:31 72° SE visible
20 Apr 10.3 04:44:04 10° NNW 04:47:36 18° WNW 04:49:44 15° W visible
21 Apr 9.2 02:40:12 10° NNE 02:45:20 47° E 02:45:29 47° ESE visible
21 Apr 9.8 04:20:37 10° N 04:25:01 27° WNW 04:26:42 23° W visible
22 Apr 9.9 02:17:40 10° NE 02:22:20 30° E 02:22:27 30° E visible
22 Apr 9.3 03:57:25 10° N 04:02:21 40° WNW 04:03:39 34° W visible
23 Apr 10.5 01:55:29 10° NE 01:59:16 19° E 01:59:25 19° E visible
23 Apr 8.7 03:34:22 10° N 03:39:37 62° WNW 03:40:37 52° WSW visible
23 Apr 10.8 05:17:41 10° NW 05:18:30 10° NW 05:19:20 10° WNW visible
24 Apr 11.0 01:34:08 10° ENE 01:36:06 12° E 01:36:22 12° E visible
24 Apr 8.5 03:11:27 10° NNE 03:16:49 86° ESE 03:17:35 67° S visible
24 Apr 10.5 04:52:57 10° NNW 04:56:02 16° WNW 04:58:48 11° W visible
25 Apr 8.9 02:48:41 10° NNE 02:53:56 56° E 02:54:33 52° SE visible
25 Apr 10.0 04:29:22 10° N 04:33:29 23° WNW 04:35:46 18° W visible
26 Apr 9.6 02:26:05 10° NNE 02:30:58 35° E 02:31:30 35° ESE visible
26 Apr 9.5 04:06:06 10° N 04:10:52 34° WNW 04:12:43 27° WSW visible
27 Apr 10.3 02:03:45 10° NE 02:07:55 23° E 02:08:28 23° ESE visible
27 Apr 8.9 03:42:59 10° N 03:48:09 52° WNW 03:49:41 39° WSW visible
28 Apr 10.8 01:41:56 10° NE 01:44:48 14° E 01:45:25 14° E visible
28 Apr 8.5 03:20:01 10° NNE 03:25:23 81° WNW 03:26:38 54° SSW visible
28 Apr 10.6 05:01:57 10° NNW 05:04:28 14° NW 05:06:59 10° W visible
